Regional Weather Roundup
Issued by NWS Northern Indiana

Home | Current Version | Previous Version | Graphics & Text | Print | Product List | Glossary On
Versions: 1 2 3 4 5 6 7 8 9 10 11 12 13 14 15 16 17 18 19 20 21 22 23 24 25 26 27 28 29 30 31 32 33 34 35 36 37 38 39 40 41 42 43 44 45 46 47 48 49 50
000
ASUS43 KIWX 010100
RWRIWX

KIWX WEATHER ROUNDUP
NATIONAL WEATHER SERVICE NORTHERN INDIANA
800 PM EST SAT FEB 28 2015

NOTE: "FAIR" INDICATES FEW OR NO CLOUDS BELOW 12,000 FEET WITH NO
SIGNIFICANT WEATHER AND/OR OBSTRUCTIONS TO VISIBILITY.

* THESE STATIONS ARE NOT UNDER NWS QUALITY CONTROL. THEY ALSO MAY NOT
  REPORT WEATHER SUCH AS PRECIPITATION OR FOG.

INZ001>027-010200-
NORTHERN INDIANA

CITY           SKY/WX    TMP DP  RH WIND       PRES   REMARKS
GARY*          CLOUDY    23   1  39 S7        30.56R WCI  15
SOUTH BEND     CLOUDY    20   6  55 SE9       30.55S WCI   9
GOSHEN         CLOUDY    18   6  59 SE7       30.55S WCI   9
ANGOLA*        CLEAR     16   3  57 SE8       30.54F WCI   5
FORT WAYNE     CLOUDY    18   6  59 E10       30.56F WCI   6
PERU/GRISSOM   CLOUDY    21   9  61 E9        30.53R WCI  10

$$
INZ028>050-010200-
CENTRAL INDIANA

CITY           SKY/WX    TMP DP  RH WIND       PRES   REMARKS
LAFAYETTE      LGT SNOW  20  15  81 E8        30.54R WCI  10
KOKOMO*        CLOUDY    19  10  68 E12       30.54R WCI   7
MUNCIE*        CLOUDY    20   9  62 E7        30.52F WCI  11
INDIANAPOLIS   LGT SNOW  22  16  78 E8        30.50S WCI  12

$$
MIZ043>046-050>051-056>058-064>065-071>073-077>080-010200-
SOUTHWEST LOWER MICHIGAN

CITY           SKY/WX    TMP DP  RH WIND       PRES   REMARKS
BATTLE CREEK   MOCLDY    19   1  45 SE7       30.54F WCI  10
BENTON HARBOR  CLOUDY    18   4  54 SE5       30.55F WCI  11
COLDWATER*     MOCLDY    16   2  54 SE8       30.55F WCI   5
HILLSDALE*     PTCLDY    14   0  52 SE5       30.54F WCI   7
HOLLAND        MOCLDY    15   4  61 CALM      30.55F
GRAND RAPIDS   MOCLDY    17  -2  43 S6        30.55S WCI   9
KALAMAZOO      MOCLDY    18   2  49 SE5       30.54F WCI  11
STURGIS*       CLOUDY    16   3  57 SE9       30.54F WCI   4
THREE RIVERS*  CLOUDY    18   2  50 SE6       30.55F WCI  10

$$
OHZ001>008-015>018-024>025-010200-
NORTHWEST OHIO

CITY           SKY/WX    TMP DP  RH WIND       PRES   REMARKS
DEFIANCE       FAIR      17   4  56 E7        30.58F WCI   8
FINDLAY        FAIR      19   1  45 E8        30.57F WCI   9
TOLEDO EXPRESS FAIR      16   1  51 CALM      30.60F
TOLEDO METCALF FAIR      15   3  59 E5        30.62F WCI   8
LIMA           CLOUDY    19   7  59 E7        30.55F WCI  10

$$
AND FOR LAKE MICHIGAN COASTAL AND OPEN LAKE BUOY OBSERVATIONS

STATION/POSITION TEMP    WIND        PRES    VSBY  WAVE
                 AIR SEA DIR/SP/G                  HT/PER
                 (F)     (DEG/KT/KT) (MB)    (MI)  (FT/S)
CALUMET HARBOR    21     130/  6/  9 1032.9R
MICHIGAN CITY     20      70/  8/  9   N/A
SAINT JOSEPH      19      CALM  /  2 1034.9S

$$
&&


USA.gov is the U.S. government's official web portal to all federal, state and local government web resources and services.